time_stamp(utc),avg(mph),gust(mph),direction(deg),12m_air_temp(f),sonic_u(cm/s),sonic_v(cm/s),sonic_w(cm/s),pressure,2m_air_temp(f),pyranometer(W/m^2)
"2017-07-09 00:00:21+00",7.2,8.2,,80.7,-301,-50,2,1008.41,80.4,0
"2017-07-09 00:05:21+00",8.9,9.9,,80.3,-373,-78,9,1008.4,80.2,0
"2017-07-09 00:10:21+00",8.7,9.7,,80,-375,-145,16,1008.36,80,0
"2017-07-09 00:15:21+00",8.4,9.4,,79.9,-351,-110,14,1008.41,79.6,0
"2017-07-09 00:20:21+00",9.9,11.9,,79.9,-412,-111,11,1008.5,79.2,0
"2017-07-09 00:25:21+00",8.9,9.9,,79.7,-386,-139,14,1008.65,78.9,0
"2017-07-09 00:30:21+00",8.2,10.2,,79.3,-350,-132,10,1008.68,78.5,0
"2017-07-09 00:35:21+00",9.9,10.9,,79,-403,-96,6,1008.78,78.2,0
"2017-07-09 00:40:21+00",10.4,11.4,,78.9,-433,-102,11,1008.75,77.9,0
"2017-07-09 00:45:21+00",9.0,10.0,,78.8,-370,-96,9,1008.71,77.7,0
"2017-07-09 00:50:21+00",9.9,10.9,,78.7,-406,-112,9,1008.84,77.4,0
"2017-07-09 00:55:21+00",8.2,9.2,,78.7,-359,-153,11,1008.86,77.2,0
"2017-07-09 01:00:21+00",8.9,9.9,,78.7,-368,-186,12,1009,77.1,0
"2017-07-09 01:05:21+00",10.1,11.1,,78.7,-411,-222,8,1009.13,77,0
"2017-07-09 01:10:21+00",9.8,10.8,,78.6,-375,-223,15,1009.19,77,0
"2017-07-09 01:15:21+00",10.0,11.0,,78.6,-378,-233,13,1009.23,76.9,0
"2017-07-09 01:20:21+00",9.6,10.6,,78.8,-422,-196,10,1009.28,76.9,0
"2017-07-09 01:25:21+00",9.4,10.4,,78.9,-420,-184,15,1009.38,77,0
"2017-07-09 01:30:21+00",9.8,10.8,,78.8,-427,-178,13,1009.47,77.1,0
"2017-07-09 01:35:21+00",10.1,11.1,,78.7,-439,-163,11,1009.6,77,0
"2017-07-09 01:40:21+00",11.4,12.4,,78.6,-474,-128,8,1009.62,77,0
"2017-07-09 01:45:21+00",10.8,11.8,,78.3,-463,-161,15,1009.82,76.9,0
"2017-07-09 01:50:21+00",10.9,11.9,,78,-461,-145,12,1009.98,76.6,0
"2017-07-09 01:55:21+00",10.6,12.6,,77.9,-445,-139,12,1010.12,76.4,0
"2017-07-09 02:00:21+00",10.5,11.5,,77.6,-427,-109,9,1010.13,76.2,0
"2017-07-09 02:05:21+00",10.6,11.6,,77.5,-436,-112,7,1010.36,76,0
"2017-07-09 02:10:21+00",14.4,17.4,,78.5,-640,67,47,1010.47,76.4,0
"2017-07-09 02:15:21+00",12.6,14.6,,78.3,-557,107,34,1010.51,76.8,0
"2017-07-09 02:20:21+00",13.2,15.2,,78.2,-583,110,49,1010.42,76.8,0
"2017-07-09 02:25:21+00",12.9,14.9,,78,-558,182,40,1010.5,76.8,0
"2017-07-09 02:30:21+00",12.7,13.7,,77.6,-495,279,38,1010.58,76.6,0
"2017-07-09 02:35:21+00",13.1,14.1,,77.4,-323,484,26,1010.66,76.4,0
"2017-07-09 02:40:21+00",12.4,13.4,,77,-394,387,43,1010.7,76.2,0
"2017-07-09 02:45:21+00",9.6,10.6,,76.7,-290,316,34,1010.83,75.9,0
"2017-07-09 02:50:21+00",8.8,9.8,,76.2,-299,248,27,1010.73,75.5,0
"2017-07-09 02:55:21+00",7.3,8.3,,75.6,-286,146,25,1010.76,75.2,0
"2017-07-09 03:00:21+00",7.1,7.1,,75.6,-201,231,22,1010.84,74.8,0
"2017-07-09 03:05:21+00",6.8,6.8,,75.6,-219,207,21,1010.8,74.5,0
"2017-07-09 03:10:21+00",5.8,5.8,,75.8,-187,169,18,1010.82,74.3,0
"2017-07-09 03:15:21+00",5.5,5.5,,76,-197,132,20,1010.76,74.1,0
"2017-07-09 03:20:21+00",5.3,5.3,,76.2,-165,163,19,1010.75,73.9,0
"2017-07-09 03:25:21+00",5.0,5.0,,76.1,-68,193,9,1010.7,73.8,0
"2017-07-09 03:30:21+00",4.3,4.3,,75.9,-108,144,14,1010.81,73.7,0
"2017-07-09 03:35:21+00",5.8,5.8,,75.6,-179,169,20,1010.92,73.7,0
"2017-07-09 03:40:21+00",5.2,5.2,,75.3,-140,170,12,1010.98,73.5,0
"2017-07-09 03:45:21+00",4.2,5.2,,75.1,-142,102,14,1011.08,73.3,0
"2017-07-09 03:50:21+00",4.2,5.2,,75,-153,95,15,1011.11,73.2,0
"2017-07-09 03:55:21+00",3.8,3.8,,75.1,-108,117,9,1010.83,73.1,0
"2017-07-09 04:00:21+00",4.7,4.7,,75.2,-87,172,9,1010.72,72.9,0
"2017-07-09 04:05:21+00",4.9,4.9,,75.2,-107,179,10,1010.86,72.7,0
"2017-07-09 04:10:21+00",5.6,6.6,,75.2,-182,164,19,1010.82,72.8,0
"2017-07-09 04:15:21+00",5.3,5.3,,75.1,-168,157,17,1010.8,72.9,0
"2017-07-09 04:20:21+00",6.4,6.4,,74.9,-193,200,19,1010.85,72.9,0
"2017-07-09 04:25:21+00",5.8,5.8,,75.1,-152,198,21,1010.84,72.8,0
"2017-07-09 04:30:21+00",4.9,4.9,,75,-163,134,19,1010.88,72.8,0
"2017-07-09 04:35:21+00",4.9,4.9,,74.9,-160,137,15,1010.99,72.8,0
"2017-07-09 04:40:21+00",5.3,5.3,,74.9,-180,148,19,1011.17,72.9,0
"2017-07-09 04:45:21+00",5.0,5.0,,74.8,-188,113,18,1011.16,72.9,0
"2017-07-09 04:50:21+00",5.3,5.3,,74.9,-222,83,17,1011.3,72.8,0
"2017-07-09 04:55:21+00",6.4,6.4,,75.1,-281,51,19,1011.34,72.7,0
"2017-07-09 05:00:21+00",7.6,7.6,,75,-335,6,21,1011.4,72.6,0
"2017-07-09 05:05:21+00",8.0,8.0,,74.9,-354,47,22,1011.35,72.5,0
"2017-07-09 05:10:21+00",10.1,11.1,,74.3,-445,107,34,1011.49,72.5,0
"2017-07-09 05:15:21+00",7.7,8.7,,74.1,-329,112,23,1011.26,72.5,0
"2017-07-09 05:20:21+00",7.3,8.3,,73.8,-322,50,25,1011.37,72.5,0
"2017-07-09 05:25:21+00",7.3,8.3,,73.7,-308,90,27,1011.44,72.4,0
"2017-07-09 05:30:21+00",9.8,10.8,,73.9,-402,185,27,1011.38,72.3,0
"2017-07-09 05:35:21+00",10.3,11.3,,74,-422,181,35,1011.4,72.4,0
"2017-07-09 05:40:21+00",8.1,9.1,,73.7,-348,114,31,1011.43,72.4,0
"2017-07-09 05:45:21+00",9.0,10.0,,73.5,-366,159,25,1011.4,72.3,0
"2017-07-09 05:50:21+00",10.1,12.1,,73.4,-396,204,30,1011.41,72.2,0
"2017-07-09 05:55:21+00",8.9,9.9,,73.3,-243,313,35,1011.52,72.2,0
"2017-07-09 06:00:21+00",9.8,11.8,,72.4,-234,364,33,1011.45,71.9,0
"2017-07-09 06:05:21+00",10.2,11.2,,71.9,-243,376,28,1011.52,71.6,0
"2017-07-09 06:10:21+00",8.8,9.8,,71.6,-199,333,20,1011.46,71.3,0
"2017-07-09 06:15:21+00",8.5,9.5,,71.5,-212,305,20,1011.58,71,0
"2017-07-09 06:20:21+00",8.5,9.5,,71.6,-228,283,30,1011.55,70.9,0
"2017-07-09 06:25:21+00",8.9,9.9,,71.6,-192,337,20,1011.54,70.9,0
"2017-07-09 06:30:21+00",7.5,8.5,,71.2,-185,273,21,1011.53,70.7,0
"2017-07-09 06:35:21+00",8.5,9.5,,71,-225,300,20,1011.45,70.5,0
"2017-07-09 06:40:21+00",8.1,9.1,,70.9,-223,280,24,1011.42,70.4,0
"2017-07-09 06:45:21+00",8.2,9.2,,70.9,-232,272,19,1011.43,70.3,0
"2017-07-09 06:50:21+00",9.3,10.3,,71,-283,301,31,1011.57,70.3,0
"2017-07-09 06:55:21+00",9.5,11.5,,71.2,-261,320,26,1011.54,70.3,0
"2017-07-09 07:00:21+00",8.2,9.2,,71.2,-260,258,32,1011.54,70.4,0
"2017-07-09 07:05:21+00",10.7,11.7,,71.3,-327,344,31,1011.59,70.4,0
"2017-07-09 07:10:21+00",10.2,11.2,,71.4,-325,317,26,1011.55,70.5,0
"2017-07-09 07:15:21+00",8.7,10.7,,71.2,-269,271,31,1011.63,70.6,0
"2017-07-09 07:20:21+00",10.0,11.0,,71.3,-306,313,21,1011.61,70.5,0
"2017-07-09 07:25:21+00",9.2,10.2,,71.2,-300,272,23,1011.59,70.5,0
"2017-07-09 07:30:21+00",11.0,13.0,,71.1,-334,342,3,1011.66,70.3,0
"2017-07-09 07:35:21+00",11.1,12.1,,71,-282,393,-21,1011.8,70.3,0
"2017-07-09 07:40:21+00",10.8,11.8,,70.8,-291,370,-21,1011.8,70.2,0
"2017-07-09 07:45:21+00",10.1,12.1,,70.6,-258,348,-37,1011.81,70,0
"2017-07-09 07:50:21+00",11.1,13.1,,70.4,-248,425,-34,1011.86,69.8,0
"2017-07-09 07:55:21+00",11.8,12.8,,70.1,-267,448,-18,1011.91,69.5,0
"2017-07-09 08:00:21+00",11.8,13.8,,69.9,-266,444,-24,1011.97,69.3,0
"2017-07-09 08:05:21+00",11.1,13.1,,69.7,-237,418,-29,1012,69.1,0
"2017-07-09 08:10:21+00",9.9,11.9,,69.6,-190,380,-21,1012,68.9,0
"2017-07-09 08:15:21+00",9.9,10.9,,69.4,-183,383,-39,1012.07,68.7,0
"2017-07-09 08:20:21+00",9.8,10.8,,69.2,-166,365,-44,1012.27,68.5,0
"2017-07-09 08:25:21+00",8.9,9.9,,69.2,-126,352,-47,1012.27,68.4,0
"2017-07-09 08:30:21+00",8.4,10.4,,69,-105,340,-27,1012.3,68.2,0
"2017-07-09 08:35:21+00",8.9,10.9,,69,-65,375,-46,1012.36,68.1,0
"2017-07-09 08:40:21+00",10.1,12.1,,69.1,-118,412,-41,1012.57,68,0
"2017-07-09 08:45:21+00",10.7,11.7,,68.9,-120,442,-50,1012.65,68,0
"2017-07-09 08:50:21+00",9.5,11.5,,68.8,-54,408,-45,1012.57,67.9,0
"2017-07-09 08:55:21+00",9.1,10.1,,68.8,-19,398,-59,1012.71,67.8,0
"2017-07-09 09:00:21+00",8.1,9.1,,68.7,-24,353,-38,1012.79,67.7,0
"2017-07-09 09:05:21+00",7.9,8.9,,68.7,11,332,-52,1012.79,67.6,0
"2017-07-09 09:10:21+00",7.5,8.5,,68.6,11,314,-57,1012.85,67.4,0
"2017-07-09 09:15:21+00",7.5,8.5,,68.5,-25,324,-43,1012.96,67.3,0
"2017-07-09 09:20:21+00",8.0,9.0,,68.4,-81,337,-17,1013.01,67.1,0
"2017-07-09 09:25:21+00",7.0,8.0,,68.3,-75,288,10,1013,67,0
"2017-07-09 09:30:21+00",7.4,8.4,,68.2,-96,309,14,1013.12,67,0
"2017-07-09 09:35:21+00",7.7,8.7,,68.2,-103,319,11,1013.23,66.9,0
"2017-07-09 09:40:21+00",7.5,8.5,,68.2,-95,307,14,1013.32,66.8,0
"2017-07-09 09:45:21+00",7.5,8.5,,68.1,-109,308,17,1013.39,66.7,0
"2017-07-09 09:50:21+00",7.7,8.7,,68.1,-125,310,15,1013.49,66.6,0
"2017-07-09 09:55:21+00",8.3,9.3,,68,-135,332,16,1013.46,66.6,0
"2017-07-09 10:00:21+00",8.7,9.7,,68.2,-147,357,22,1013.49,66.6,0
"2017-07-09 10:05:21+00",9.0,10.0,,68.2,-145,364,20,1013.6,66.7,0
"2017-07-09 10:10:21+00",7.8,9.8,,68.1,-110,324,22,1013.67,66.8,0
"2017-07-09 10:15:21+00",8.8,9.8,,68.1,-129,357,17,1013.78,67,0
"2017-07-09 10:20:21+00",9.3,10.3,,68.2,-119,387,16,1013.83,67.2,0.8
"2017-07-09 10:25:21+00",7.7,8.7,,68.3,-70,321,12,1013.87,67.5,3.3
"2017-07-09 10:30:21+00",8.8,9.8,,68.4,-59,377,5,1014.02,68,8.5
"2017-07-09 10:35:21+00",8.3,9.3,,68.5,-69,352,8,1014.06,68.4,17
"2017-07-09 10:40:21+00",8.5,10.5,,68.7,-80,353,8,1014.08,68.9,25.4
"2017-07-09 10:45:21+00",7.2,9.2,,68.8,-83,304,19,1014.25,69.4,34.9
"2017-07-09 10:50:21+00",6.5,7.5,,69,-58,278,16,1014.22,69.9,41
"2017-07-09 10:55:21+00",7.2,9.2,,69.3,-51,302,14,1014.23,70.5,51.6
"2017-07-09 11:00:21+00",5.9,7.9,,69.6,-27,245,19,1014.33,71.1,59.8
"2017-07-09 11:05:21+00",6.9,8.9,,69.9,-30,301,17,1014.38,71.5,67.3
"2017-07-09 11:10:21+00",9.4,10.4,,70,-32,405,16,1014.41,71.8,59.8
"2017-07-09 11:15:21+00",7.1,9.1,,70.1,14,296,23,1014.48,72.1,86.3
"2017-07-09 11:20:21+00",8.9,9.9,,70.3,-15,384,2,1014.53,72.4,97.2
"2017-07-09 11:25:21+00",7.6,9.6,,70.5,21,321,15,1014.53,72.6,108.1
"2017-07-09 11:30:21+00",8.5,9.5,,70.5,-38,366,10,1014.69,72.9,114.6
"2017-07-09 11:35:21+00",8.5,9.5,,70.7,-8,361,5,1014.72,73.3,124.2
"2017-07-09 11:40:21+00",8.3,9.3,,71,-26,358,1,1014.73,73.7,134.7
"2017-07-09 11:45:21+00",7.4,8.4,,71.3,-35,317,18,1014.84,74.2,144.2
"2017-07-09 11:50:21+00",6.2,7.2,,71.6,28,258,15,1014.92,74.7,155.7
"2017-07-09 11:55:21+00",7.3,9.3,,71.6,-75,307,13,1014.89,74.9,165.4
"2017-07-09 12:00:21+00",8.4,9.4,,71.6,-94,349,15,1014.87,75.1,172.4
"2017-07-09 12:05:21+00",8.3,9.3,,71.9,-109,348,19,1015.03,75.4,180.1
"2017-07-09 12:10:21+00",8.3,9.3,,72,-9,355,4,1015.11,75.5,190.8
"2017-07-09 12:15:21+00",7.8,9.8,,72.4,38,329,11,1015.16,75.7,197.3
"2017-07-09 12:20:21+00",8.6,9.6,,72.6,-51,359,13,1015.21,75.8,209
"2017-07-09 12:25:21+00",8.6,10.6,,72.8,-57,361,9,1015.26,76.1,215
"2017-07-09 12:30:21+00",8.4,8.4,,73,28,357,-6,1015.3,76.1,221.5
"2017-07-09 12:35:21+00",8.5,9.5,,73.2,-86,369,39,1015.33,76.3,232.7
"2017-07-09 12:40:21+00",8.5,10.5,,73.6,-40,373,16,1015.22,76.8,238.4
"2017-07-09 12:45:21+00",8.1,10.1,,73.7,-35,344,17,1015.4,76.9,246.5
"2017-07-09 12:50:21+00",7.3,9.3,,73.9,-1,319,14,1015.3,77.1,251.7
"2017-07-09 12:55:21+00",9.5,11.5,,74.1,89,387,1,1015.42,77.2,261.3
"2017-07-09 13:00:21+00",9.1,11.1,,74.1,21,386,2,1015.48,77.2,256
"2017-07-09 13:05:21+00",10.2,11.2,,73.9,9,434,-1,1015.47,77.1,276.4
"2017-07-09 13:10:21+00",8.6,10.6,,74,150,321,6,1015.5,77.2,285.9
"2017-07-09 13:15:21+00",9.7,10.7,,74.4,95,394,-13,1015.62,77.6,271.8
"2017-07-09 13:20:21+00",9.3,11.3,,74.5,44,399,-5,1015.64,77.8,300.2
"2017-07-09 13:25:21+00",8.3,10.3,,74.4,-10,351,5,1015.69,77.9,310.4
"2017-07-09 13:30:21+00",7.4,9.4,,75,72,299,-3,1015.72,78.3,317.4
"2017-07-09 13:35:21+00",7.3,9.3,,74.9,155,263,-11,1015.71,78.2,329.4
"2017-07-09 13:40:21+00",5.2,7.2,,75.4,80,172,41,1015.77,78.5,334.6
"2017-07-09 13:45:21+00",5.6,7.6,,75.4,12,217,41,1015.83,79.1,338.5
"2017-07-09 13:50:21+00",8.0,9.0,,75.3,236,232,2,1015.91,79.3,348.1
"2017-07-09 13:55:21+00",4.1,6.1,,75.6,74,139,-5,1015.89,79.5,360.9
"2017-07-09 14:00:21+00",4.9,6.9,,75.9,125,143,18,1015.98,80.2,368.4
"2017-07-09 14:05:21+00",5.4,7.4,,76.2,102,185,7,1015.99,80.3,380.3
"2017-07-09 14:10:21+00",5.8,8.8,,76.4,128,204,3,1015.97,80.4,393.3
"2017-07-09 14:15:21+00",3.2,4.2,,76.7,69,94,19,1016.14,80.6,391.4
"2017-07-09 14:20:21+00",2.9,3.9,,77,58,43,54,1016.19,80.7,406.6
"2017-07-09 14:25:21+00",8.3,10.3,,76.1,261,-237,-5,1016.22,80.2,408.4
"2017-07-09 14:30:21+00",9.4,10.4,,75.1,299,-281,-24,1016.23,79.3,416
"2017-07-09 14:35:21+00",10.2,11.2,,74.2,352,-266,-4,1016.28,78.8,417.9
"2017-07-09 14:40:21+00",9.7,11.7,,73.9,252,-336,3,1016.39,77.7,425
"2017-07-09 14:45:21+00",9.5,11.5,,74,333,-233,-10,1016.5,77.7,431.6
"2017-07-09 14:50:21+00",10.7,13.7,,74,285,-360,-20,1016.46,77.5,435.5
"2017-07-09 14:55:21+00",8.6,10.6,,74.1,178,-313,12,1016.56,77.3,443.6
"2017-07-09 15:00:21+00",9.5,12.5,,73.8,221,-339,-12,1016.52,76.8,448.2
"2017-07-09 15:05:21+00",10.5,11.5,,73.8,202,-407,-7,1016.65,76.4,453
"2017-07-09 15:10:21+00",8.7,11.7,,73.8,149,-345,-16,1016.69,76.2,462
"2017-07-09 15:15:21+00",9.6,10.6,,74.2,289,-301,-14,1016.65,76.5,470
"2017-07-09 15:20:21+00",10.8,11.8,,74.3,248,-388,2,1016.69,76.6,474.3
"2017-07-09 15:25:21+00",12.2,13.2,,74.4,308,-430,-1,1016.78,76.8,483.1
"2017-07-09 15:30:21+00",11.8,14.8,,74.4,362,-358,-6,1016.93,76.9,487.3
"2017-07-09 15:35:21+00",11.0,13.0,,74.6,303,-367,3,1016.75,77,495.4
"2017-07-09 15:40:21+00",11.8,13.8,,74.8,368,-358,-2,1016.75,77.2,510.1
"2017-07-09 15:45:21+00",12.0,13.0,,74.6,292,-433,-9,1016.74,77.3,523.1
"2017-07-09 15:50:21+00",14.0,16.0,,74.2,336,-504,-19,1016.8,76.7,541
"2017-07-09 15:55:21+00",12.8,15.8,,74.3,295,-468,-9,1016.79,77.1,196.6
"2017-07-09 16:00:21+00",12.2,14.2,,74.5,267,-447,-9,1016.77,77,578.9
"2017-07-09 16:05:21+00",12.0,13.0,,74.8,329,-404,-2,1016.73,77.1,556.2
"2017-07-09 16:10:21+00",10.7,12.7,,74.9,313,-353,10,1016.76,77.4,581.4
"2017-07-09 16:15:21+00",10.8,11.8,,75,291,-361,14,1016.69,77.8,169.4
"2017-07-09 16:20:21+00",11.9,13.9,,74.3,267,-446,-13,1016.79,76.4,246.4
"2017-07-09 16:25:21+00",11.8,13.8,,74.5,263,-442,3,1016.79,76.4,560.2
"2017-07-09 16:30:21+00",11.6,12.6,,74.5,218,-444,7,1016.79,76.9,530.8
"2017-07-09 16:35:21+00",11.8,12.8,,74.8,241,-447,-17,1016.75,77.2,585.7
"2017-07-09 16:40:21+00",11.9,12.9,,74.5,322,-400,-9,1016.69,77.5,577.7
"2017-07-09 16:45:21+00",12.9,14.9,,74.2,296,-475,-9,1016.72,77.1,573
"2017-07-09 16:50:21+00",12.5,13.5,,74.6,218,-491,-2,1016.67,77.4,562
"2017-07-09 16:55:21+00",12.4,14.4,,74.3,278,-454,-13,1016.63,77.1,523.2
"2017-07-09 17:00:21+00",12.2,13.2,,74.2,302,-437,3,1016.56,76.5,570.7
"2017-07-09 17:05:21+00",12.9,14.9,,74.3,247,-506,-4,1016.45,76.8,497.1
"2017-07-09 17:10:21+00",11.9,13.9,,74.7,217,-463,39,1016.43,77.1,567.3
"2017-07-09 17:15:21+00",13.0,15.0,,74.6,167,-523,-15,1016.38,77.3,563
"2017-07-09 17:20:21+00",14.6,17.6,,74.1,249,-581,-18,1016.46,76.9,567.1
"2017-07-09 17:25:21+00",12.2,15.2,,74.4,175,-475,33,1016.38,77,564.3
"2017-07-09 17:30:21+00",14.1,16.1,,74.1,165,-570,-17,1016.38,76.8,566
"2017-07-09 17:35:21+00",13.9,14.9,,74.3,144,-576,-22,1016.34,76.8,571.6
"2017-07-09 17:40:21+00",14.3,16.3,,74.6,130,-603,-28,1016.34,77,566
"2017-07-09 17:45:21+00",13.6,15.6,,74.2,188,-545,-30,1016.36,76.7,559
"2017-07-09 17:50:21+00",12.6,14.6,,74.6,124,-531,-10,1016.43,77,562.6
"2017-07-09 17:55:21+00",12.6,15.6,,74.3,200,-502,-1,1016.39,76.8,555.4
"2017-07-09 18:00:21+00",14.8,15.8,,74.1,171,-606,-43,1016.34,76.6,557.5
"2017-07-09 18:05:21+00",15.3,16.3,,74.1,215,-622,-15,1016.34,76.7,553
"2017-07-09 18:10:21+00",15.2,17.2,,74.3,132,-632,-32,1016.36,76.6,554.1
"2017-07-09 18:15:21+00",15.0,18.0,,74.3,148,-628,-25,1016.47,76.9,543.6
"2017-07-09 18:20:21+00",13.8,16.8,,74.4,170,-563,-10,1016.47,77,543.4
"2017-07-09 18:25:21+00",14.0,15.0,,74.3,194,-571,-18,1016.39,76.8,540
"2017-07-09 18:30:21+00",14.3,17.3,,75.1,132,-603,-21,1016.41,77.2,536
"2017-07-09 18:35:21+00",14.2,16.2,,74.7,46,-616,8,1016.37,76.8,530.9
"2017-07-09 18:40:21+00",13.0,17.0,,75.2,142,-556,-4,1016.29,77.4,522.4
"2017-07-09 18:45:21+00",17.0,18.0,,74.8,197,-701,-49,1016.22,77.4,513.4
"2017-07-09 18:50:21+00",14.3,17.3,,74.7,169,-594,-11,1016.26,77.1,512.8
"2017-07-09 18:55:21+00",16.0,19.0,,75.3,71,-678,-35,1016.22,77.4,509.5
"2017-07-09 19:00:21+00",15.9,18.9,,75.5,109,-672,-21,1016.25,77.5,503.4
"2017-07-09 19:05:21+00",14.7,17.7,,76,73,-643,-34,1016.23,78.1,497.1
"2017-07-09 19:10:21+00",15.5,18.5,,76.1,58,-662,-34,1016.2,78.1,495.6
"2017-07-09 19:15:21+00",14.4,19.4,,76.5,87,-608,6,1016.2,78.3,485.1
"2017-07-09 19:20:21+00",16.1,20.1,,75.6,124,-676,-12,1016.14,77.8,479.9
"2017-07-09 19:25:21+00",14.3,18.3,,75.6,137,-572,21,1016.05,77.8,475
"2017-07-09 19:30:21+00",16.0,18.0,,75.3,65,-685,-45,1016.1,77.6,468.4
"2017-07-09 19:35:21+00",10.9,14.9,,76.3,-105,-447,2,1016.03,77.8,457.5
"2017-07-09 19:40:21+00",10.3,15.3,,77.5,-43,-430,-2,1016.01,79.1,450.6
"2017-07-09 19:45:21+00",14.0,18.0,,76.5,68,-592,-4,1015.92,78.7,440.1
"2017-07-09 19:50:21+00",12.0,15.0,,76.3,70,-500,6,1015.92,78.3,430.4
"2017-07-09 19:55:21+00",13.7,17.7,,76.5,92,-583,-14,1015.87,78.4,424.2
"2017-07-09 20:00:21+00",11.9,15.9,,77,-143,-492,3,1015.97,78.5,417.9
"2017-07-09 20:05:21+00",13.7,16.7,,77.8,-138,-569,0,1015.81,79.4,407.7
"2017-07-09 20:10:21+00",16.5,19.5,,78.1,-187,-688,-32,1015.86,79.9,402.4
"2017-07-09 20:15:21+00",10.8,14.8,,78,-86,-452,2,1015.89,79.8,390.4
"2017-07-09 20:20:21+00",11.1,14.1,,78,-32,-457,-5,1015.89,79.9,385.4
"2017-07-09 20:25:21+00",13.1,16.1,,77.6,-59,-534,-7,1015.89,79.4,374.1
"2017-07-09 20:30:21+00",14.4,19.4,,77.5,-34,-590,-10,1015.84,79.2,368.6
"2017-07-09 20:35:21+00",12.6,17.6,,77.4,-66,-511,0,1015.82,79.2,356.8
"2017-07-09 20:40:21+00",14.6,19.6,,77.1,21,-611,-22,1015.75,78.7,107.6
"2017-07-09 20:45:21+00",13.7,17.7,,77.2,-46,-590,-13,1015.81,78.7,4.3
"2017-07-09 20:50:21+00",14.6,18.6,,77.2,-52,-610,-36,1015.77,78.6,5
"2017-07-09 20:55:21+00",13.6,17.6,,77.1,-13,-572,-38,1015.65,78.4,5.9
"2017-07-09 21:00:21+00",15.0,19.0,,77,-81,-627,-20,1015.69,78.3,3.6
"2017-07-09 21:05:21+00",15.3,20.3,,77,-146,-638,-3,1015.77,78.5,251.4
"2017-07-09 21:10:21+00",16.2,19.2,,77.2,-286,-644,4,1015.79,78.8,289.4
"2017-07-09 21:15:21+00",10.6,15.6,,77.6,-125,-433,15,1015.72,79,283.1
"2017-07-09 21:20:21+00",13.1,18.1,,77.8,-145,-541,-4,1015.69,79.2,139.4
"2017-07-09 21:25:21+00",16.7,21.7,,77.6,-243,-679,-28,1015.69,79.2,6.6
"2017-07-09 21:30:21+00",13.3,17.3,,77.5,-40,-564,-33,1015.59,79,248.4
"2017-07-09 21:35:21+00",13.5,17.5,,77.3,-176,-548,5,1015.59,78.6,238.9
"2017-07-09 21:40:21+00",12.4,14.4,,77.6,-86,-519,-23,1015.61,78.7,235.4
"2017-07-09 21:45:21+00",14.0,19.0,,77.5,-173,-576,9,1015.61,78.7,224.5
"2017-07-09 21:50:21+00",15.2,17.2,,77.7,-302,-594,4,1015.66,79,215.6
"2017-07-09 21:55:21+00",14.8,18.8,,77.6,-251,-592,-10,1015.62,79,205.6
"2017-07-09 22:00:21+00",13.3,16.3,,77.8,-206,-539,0,1015.61,79.1,197
"2017-07-09 22:05:21+00",13.6,17.6,,77.9,-229,-538,10,1015.56,79.3,190.1
"2017-07-09 22:10:21+00",13.8,15.8,,77.9,-265,-540,-8,1015.58,79.7,178.5
"2017-07-09 22:15:21+00",9.9,11.9,,78.2,-254,-341,0,1015.57,80,168.6
"2017-07-09 22:20:21+00",9.4,11.4,,78.6,-153,-371,1,1015.53,80.5,155
"2017-07-09 22:25:21+00",10.1,12.1,,79.7,-438,136,54,1015.5,81.3,127.8
"2017-07-09 22:30:21+00",10.1,12.1,,80.3,-372,251,46,1015.48,82,140
"2017-07-09 22:35:21+00",11.0,13.0,,80.3,-485,107,50,1015.57,82.2,132.5
"2017-07-09 22:40:21+00",13.4,16.4,,80.1,-598,104,36,1015.53,82.1,109.2
"2017-07-09 22:45:21+00",11.8,14.8,,80.1,-521,-3,35,1015.68,81.9,112.2
"2017-07-09 22:50:21+00",11.2,12.2,,79.9,-495,122,53,1015.69,81.9,102.2
"2017-07-09 22:55:21+00",11.7,14.7,,79.9,-474,233,27,1015.66,81.6,94.3
"2017-07-09 23:00:21+00",11.9,14.9,,79.7,-443,299,36,1015.81,81.3,83.6
"2017-07-09 23:05:21+00",12.3,14.3,,79.6,-469,293,48,1015.83,80.8,73.8
"2017-07-09 23:10:21+00",10.5,12.5,,79.4,-428,201,56,1015.84,80.6,64.9
"2017-07-09 23:15:21+00",13.0,14.0,,79.5,-539,221,30,1015.91,80.4,57.3
"2017-07-09 23:20:21+00",12.6,14.6,,79.5,-529,210,46,1015.95,80.3,48.2
"2017-07-09 23:25:21+00",10.7,11.7,,79.3,-435,220,32,1016.01,80.1,36.7
"2017-07-09 23:30:21+00",11.7,13.7,,79.2,-437,280,28,1016.02,79.8,28.5
"2017-07-09 23:35:21+00",11.6,12.6,,78.8,-503,141,35,1016.09,79.6,20.3
"2017-07-09 23:40:21+00",11.7,13.7,,78.8,-519,139,39,1016.12,79.3,12.7
"2017-07-09 23:45:21+00",12.3,14.3,,78.6,-524,186,44,1016.15,79,6.3
"2017-07-09 23:50:21+00",13.4,14.4,,78.7,-573,193,44,1016.16,78.7,1.2
"2017-07-09 23:55:21+00",10.3,11.3,,78.3,-443,120,37,1016.26,78.6,0
